sat.trackr.live / text

‹ back to catalog

STARLINK-30468

NORAD 57926 · 2023-147P

PAYLOAD ACTIVE UNKNOWN

§ Identity

Operator
Country
US
Launch date
2023-09-24
Launch site
AFETR
Launch vehicle
Mass (kg)
RCS (m²)

Purposes: comms

External: N2YO · Heavens-Above · Gunter

§ Orbital elements

Epoch: 2026-05-25T00:31:35.923584Z

Period
94.27 min
Inclination
42.9996°
Eccentricity
0.0001013
Mean motion
15.27579408 rev/d
Perigee alt
482.4 km
Apogee alt
483.7 km
Semi-major
6,861.2 km
B*
-6.8601e-5
RAAN
257.3978°
Arg perigee
272.4266°
Mean anomaly
87.6470°
Rev number
14,823

§ Raw data

STARLINK-304681 57926U 23147P   26145.02194356 -.00002149  00000+0 -68601-4 0  99962 57926  42.9996 257.3978 0001013 272.4266  87.6470 15.27579408148233

JSON: /api/v1/satellites/57926 · /tle

For live sub-satellite position, see the globe view (requires WebGL).

§ Visibility from observer

Set your observer location to see the next 7 days of passes ≥ 10°. The values pass through the URL so the page stays shareable.

No JS? Fill the form by hand. The geolocation button needs JavaScript.